GW3439 Weather Reports


time (UTC)temp
C
wind
direction
speed
KPH
gust
KPH
rain 1hr
cm
rain 24hr
cm
rain mn
cm
humidity
%
barometer
mb
20260508174009 18 58 8.0 17.7 0.00 0.05 0.05 86 1015.3
20260508173502 18 65 6.4 12.9 0.00 0.05 0.05 86 1015.4
20260508173006 18 72 6.4 14.5 0.00 0.05 0.05 86 1015.5
20260508172509 18 51 8.0 16.1 0.00 0.05 0.05 86 1015.7
20260508172007 18 36 4.8 20.9 0.00 0.05 0.05 86 1015.7
20260508171512 19 20 14.5 20.9 0.00 0.05 0.05 86 1015.9
20260508171005 18 40 9.7 19.3 0.00 0.05 0.05 86 1016.1
20260508170506 18 51 11.3 19.3 0.00 0.05 0.05 86 1016.1
20260508170016 18 59 9.7 19.3 0.00 0.05 0.05 86 1016.2
20260508165508 18 36 11.3 19.3 0.00 0.05 0.05 86 1016.4
20260508165008 18 26 12.9 22.5 0.00 0.05 0.05 86 1016.4
20260508164521 18 352 12.9 25.7 0.00 0.05 0.05 86 1016.4
20260508164011 18 352 12.9 25.7 0.00 0.05 0.05 86 1016.5
20260508163510 18 9 12.9 17.7 0.00 0.05 0.05 86 1016.7
20260508163030 18 360 8.0 12.9 0.00 0.05 0.05 86 1016.5
20260508162514 18 22 4.8 9.7 0.00 0.05 0.05 86 1016.4
20260508162007 18 54 4.8 8.0 0.00 0.05 0.05 86 1016.3
20260508161510 18 43 4.8 8.0 0.00 0.05 0.05 87 1016.3
20260508161005 18 39 3.2 9.7 0.00 0.05 0.05 86 1016.4
20260508160506 18 32 3.2 14.5 0.00 0.05 0.05 87 1016.5
20260508160021 18 42 8.0 14.5 0.00 0.05 0.05 87 1016.5
20260508155511 18 59 6.4 12.9 0.00 0.05 0.05 87 1016.4
20260508155008 18 53 3.2 9.7 0.00 0.05 0.05 87 1016.3
20260508154520 17 109 4.8 9.7 0.00 0.05 0.05 87 1016.2
20260508154013 17 40 1.6 9.7 0.00 0.05 0.05 87 1016.3
20260508153508 17 111 3.2 9.7 0.03 0.05 0.05 87 1016.3
20260508153022 17 98 4.8 14.5 0.03 0.05 0.05 87 1016.1
20260508152513 17 76 3.2 14.5 0.03 0.05 0.05 87 1016.0
20260508152014 17 86 6.4 12.9 0.03 0.05 0.05 87 1015.9
20260508151526 17 110 4.8 16.1 0.03 0.05 0.05 87 1015.9
20260508151015 17 91 6.4 16.1 0.03 0.05 0.05 87 1016.0
20260508150504 17 103 6.4 14.5 0.03 0.05 0.05 87 1016.0
20260508150034 17 60 3.2 14.5 0.03 0.05 0.05 86 1016.0
20260508145506 17 90 6.4 14.5 0.03 0.05 0.05 86 1016.2
20260508145004 17 54 3.2 14.5 0.03 0.05 0.05 86 1016.1
20260508144502 17 34 8.0 14.5 0.03 0.05 0.05 86 1015.9
20260508144001 18 100 4.8 16.1 0.03 0.05 0.05 86 1015.8
20260508143502 18 88 11.3 17.7 0.00 0.03 0.03 86 1015.7
20260508143005 18 86 9.7 17.7 0.00 0.03 0.03 86 1016.1
20260508142502 18 66 8.0 19.3 0.00 0.03 0.03 86 1016.1
20260508142004 18 113 8.0 19.3 0.00 0.03 0.03 86 1016.0
20260508141507 18 70 6.4 14.5 0.00 0.03 0.03 86 1016.0
20260508141005 18 103 8.0 16.1 0.00 0.03 0.03 86 1016.1
20260508140506 17 84 11.3 16.1 0.00 0.03 0.03 86 1016.1
20260508140015 17 99 6.4 16.1 0.00 0.03 0.03 86 1016.3
20260508135505 17 100 8.0 16.1 0.00 0.03 0.03 86 1016.3
20260508135005 17 130 4.8 12.9 0.00 0.03 0.03 86 1016.3
20260508134513 17 88 4.8 12.9 0.00 0.03 0.03 86 1016.3
20260508134009 17 80 6.4 14.5 0.00 0.03 0.03 86 1016.3
20260508133512 17 94 6.4 14.5 0.00 0.03 0.03 87 1016.2
20260508133002 17 59 3.2 9.7 0.00 0.03 0.03 87 1016.3
20260508132501 17 73 3.2 12.9 0.00 0.03 0.03 86 1016.4
20260508132001 17 59 4.8 12.9 0.00 0.03 0.03 86 1016.2
20260508131506 17 69 4.8 12.9 0.00 0.03 0.03 87 1016.5
20260508131010 17 73 4.8 9.7 0.00 0.03 0.03 87 1016.5
20260508130504 17 61 3.2 9.7 0.00 0.03 0.03 87 1016.3
20260508130006 17 76 1.6 8.0 0.00 0.03 0.03 87 1016.5
20260508125505 17 59 3.2 9.7 0.00 0.03 0.03 87 1016.4
20260508125005 17 38 4.8 9.7 0.00 0.03 0.03 87 1016.3
20260508124514 17 64 3.2 8.0 0.00 0.03 0.03 87 1016.2
20260508124006 17 33 4.8 8.0 0.00 0.05 0.03 87 1016.4
20260508123505 17 72 1.6 6.4 0.00 0.05 0.03 87 1016.5
20260508123018 17 22 1.6 6.4 0.00 0.08 0.03 87 1016.6
20260508122505 17 47 3.2 9.7 0.00 0.08 0.03 87 1016.5
20260508122007 17 50 3.2 11.3 0.00 0.08 0.03 87 1016.3
20260508121501 17 109 4.8 11.3 0.00 0.08 0.03 87 1016.0
20260508121002 17 61 3.2 8.0 0.00 0.08 0.03 87 1016.2
20260508120502 17 66 3.2 6.4 0.00 0.08 0.03 87 1016.2
20260508120010 17 43 3.2 8.0 0.03 0.08 0.03 87 1016.4
20260508115505 17 36 4.8 8.0 0.03 0.08 0.03 87 1016.6
20260508115004 17 99 3.2 6.4 0.03 0.08 0.03 86 1016.6
20260508114508 17 59 1.6 6.4 0.03 0.08 0.03 86 1016.5
20260508114005 17 90 0.0 6.4 0.03 0.08 0.03 87 1016.5
20260508113505 17 93 3.2 9.7 0.03 0.08 0.03 86 1016.4
20260508113018 17 46 3.2 9.7 0.03 0.08 0.03 86 1016.3
20260508112505 17 92 3.2 8.0 0.03 0.08 0.03 86 1016.2
20260508112008 17 55 4.8 11.3 0.03 0.10 0.03 86 1016.1
20260508111522 17 73 6.4 11.3 0.03 0.10 0.03 86 1016.1
20260508111010 17 74 4.8 9.7 0.03 0.10 0.03 86 1016.2
20260508110507 17 76 4.8 9.7 0.03 0.10 0.03 86 1016.2
20260508110005 17 345 4.8 14.5 0.00 0.08 0.00 86 1016.2
20260508105504 17 360 6.4 14.5 0.00 0.08 0.00 86 1016.1
20260508105006 17 352 6.4 14.5 0.00 0.10 0.00 86 1016.1
20260508104508 17 352 6.4 11.3 0.00 0.10 0.00 86 1016.0
20260508104006 17 360 3.2 11.3 0.00 0.10 0.00 86 1016.0
20260508103505 17 15 4.8 8.0 0.00 0.10 0.00 86 1015.8
20260508103014 17 21 4.8 8.0 0.00 0.10 0.00 86 1015.5
20260508102505 17 360 3.2 8.0 0.00 0.10 0.00 86 1015.5
20260508102009 17 15 3.2 8.0 0.00 0.10 0.00 86 1015.3
20260508101518 17 32 3.2 6.4 0.00 0.10 0.00 86 1015.1
20260508101009 17 65 3.2 4.8 0.00 0.10 0.00 86 1014.9
20260508100507 17 76 1.6 4.8 0.00 0.10 0.00 86 1014.7
20260508100027 17 78 3.2 8.0 0.00 0.10 0.00 86 1014.8
20260508095510 17 79 3.2 11.3 0.00 0.10 0.00 86 1014.8
20260508095013 17 43 6.4 11.3 0.00 0.10 0.00 86 1014.8
20260508094508 17 16 4.8 9.7 0.00 0.10 0.00 86 1014.8
20260508094009 17 41 4.8 8.0 0.00 0.10 0.00 86 1014.8
20260508093506 17 22 4.8 8.0 0.00 0.10 0.00 86 1014.8
20260508093013 17 23 4.8 6.4 0.00 0.10 0.00 86 1014.9
20260508092504 17 67 3.2 9.7 0.00 0.10 0.00 86 1014.8
20260508092007 17 83 3.2 9.7 0.00 0.10 0.00 86 1014.7
20260508091518 17 73 3.2 9.7 0.00 0.10 0.00 86 1014.7
20260508091007 17 77 3.2 9.7 0.00 0.10 0.00 86 1014.6
20260508090508 17 74 4.8 9.7 0.00 0.10 0.00 86 1014.9
20260508090018 17 46 4.8 9.7 0.00 0.10 0.00 86 1014.9
20260508085508 17 40 3.2 6.4 0.00 0.10 0.00 86 1015.0
20260508085010 17 45 3.2 6.4 0.00 0.10 0.00 86 1015.0
20260508084524 17 44 1.6 6.4 0.00 0.10 0.00 86 1014.9
20260508084010 17 38 3.2 8.0 0.00 0.10 0.00 86 1014.9
20260508083512 17 48 3.2 9.7 0.00 0.10 0.00 86 1014.9
20260508083009 17 52 3.2 9.7 0.00 0.10 0.00 86 1015.0
20260508082505 17 53 3.2 9.7 0.00 0.10 0.00 86 1015.0
20260508082005 17 42 6.4 9.7 0.00 0.10 0.00 86 1015.1
20260508081516 17 21 4.8 11.3 0.00 0.10 0.00 86 1015.3
20260508081006 17 9 4.8 11.3 0.00 0.10 0.00 86 1015.3
20260508080507 17 10 6.4 11.3 0.00 0.10 0.00 86 1015.2
20260508080030 17 12 3.2 8.0 0.00 0.10 0.00 86 1015.1
20260508075508 17 352 3.2 8.0 0.00 0.10 0.00 86 1015.1
20260508075010 17 5 3.2 9.7 0.00 0.10 0.00 86 1015.1
20260508074522 17 53 3.2 9.7 0.00 0.10 0.00 86 1014.9
20260508074008 17 58 3.2 6.4 0.00 0.10 0.00 86 1014.8
20260508073507 17 107 1.6 8.0 0.00 0.10 0.00 86 1014.7
20260508073026 17 40 1.6 8.0 0.00 0.10 0.00 87 1014.7
20260508072512 17 25 4.8 8.0 0.00 0.10 0.00 87 1014.9
20260508072008 17 35 4.8 8.0 0.00 0.10 0.00 87 1015.1
20260508071513 17 35 4.8 9.7 0.00 0.10 0.00 87 1015.0
20260508071008 17 78 4.8 9.7 0.00 0.10 0.00 87 1015.1
20260508070508 17 59 3.2 9.7 0.00 0.10 0.00 87 1015.2
20260508070022 17 37 6.4 11.3 0.00 0.10 0.00 87 1015.1
20260508065507 17 49 6.4 14.5 0.00 0.10 0.00 87 1015.2
20260508065007 17 40 4.8 14.5 0.00 0.10 0.00 87 1015.2
20260508064535 17 65 6.4 14.5 0.00 0.10 0.00 87 1015.3
20260508064008 17 49 4.8 17.7 0.00 0.10 0.00 87 1015.4
20260508063508 17 35 6.4 17.7 0.00 0.10 0.00 87 1015.3
20260508063027 17 38 6.4 14.5 0.00 0.10 0.00 87 1015.4
20260508062508 17 51 4.8 14.5 0.00 0.10 0.00 87 1015.4
20260508062010 17 47 9.7 14.5 0.00 0.10 0.00 87 1015.5
20260508061532 17 29 6.4 11.3 0.00 0.10 0.00 87 1015.6
20260508061010 17 17 4.8 8.0 0.00 0.10 0.00 87 1015.7
20260508060517 17 13 3.2 9.7 0.00 0.10 0.00 87 1015.5
20260508060028 17 28 4.8 12.9 0.00 0.10 0.00 87 1015.5
20260508055507 17 345 6.4 12.9 0.00 0.10 0.00 87 1015.6
20260508055007 17 31 4.8 9.7 0.00 0.10 0.00 87 1015.2
20260508054532 17 94 4.8 8.0 0.00 0.10 0.00 87 1015.3
20260508054007 17 84 3.2 8.0 0.00 0.10 0.00 87 1015.4
20260508053507 17 30 4.8 8.0 0.00 0.10 0.00 87 1015.6
20260508053020 17 58 3.2 6.4 0.00 0.10 0.00 87 1015.4
20260508052515 17 47 3.2 6.4 0.00 0.10 0.00 87 1015.6
20260508052011 17 41 3.2 6.4 0.00 0.10 0.00 86 1015.7
20260508051525 17 5 1.6 6.4 0.00 0.10 0.00 86 1015.7
20260508051006 17 348 3.2 6.4 0.00 0.10 0.00 87 1015.8
20260508050505 17 40 1.6 4.8 0.00 0.10 0.00 87 1015.7
20260508050010 17 44 0.0 6.4 0.00 0.10 0.00 87 1015.6
20260508045509 17 61 1.6 6.4 0.00 0.10 0.10 87 1015.7
20260508045005 17 350 1.6 6.4 0.00 0.10 0.10 87 1015.9
20260508044516 17 351 3.2 4.8 0.00 0.10 0.10 87 1016.0
20260508044004 17 49 1.6 4.8 0.00 0.10 0.10 87 1015.7
20260508043507 17 49 1.6 6.4 0.00 0.10 0.10 87 1015.7
20260508043020 17 49 3.2 6.4 0.00 0.10 0.10 87 1015.8
20260508042509 17 19 1.6 6.4 0.00 0.10 0.10 87 1016.0
20260508042008 17 352 3.2 8.0 0.00 0.10 0.10 86 1016.4
20260508041523 17 37 3.2 9.7 0.00 0.10 0.10 86 1016.0
20260508041009 17 22 4.8 9.7 0.00 0.10 0.10 86 1015.9
20260508040509 18 15 3.2 6.4 0.00 0.10 0.10 86 1016.0
20260508040040 18 51 1.6 8.0 0.00 0.10 0.10 86 1016.0
20260508035505 18 14 4.8 9.7 0.00 0.10 0.10 86 1016.2
20260508035006 18 18 4.8 9.7 0.00 0.10 0.10 86 1016.4
20260508034513 18 329 4.8 8.0 0.00 0.10 0.10 86 1016.5
20260508034009 18 352 1.6 8.0 0.00 0.10 0.10 86 1016.3
20260508033507 18 352 4.8 8.0 0.00 0.10 0.10 86 1016.4
20260508033018 18 360 3.2 6.4 0.00 0.10 0.10 86 1016.4
20260508032508 18 5 3.2 11.3 0.00 0.10 0.10 86 1016.4
20260508032007 18 13 3.2 11.3 0.00 0.10 0.10 86 1016.3
20260508031523 18 9 4.8 8.0 0.00 0.10 0.10 86 1016.3
20260508031012 18 352 4.8 11.3 0.00 0.10 0.10 86 1016.3
20260508030510 18 9 4.8 11.3 0.00 0.10 0.10 86 1016.5
20260508030026 18 5 3.2 9.7 0.00 0.10 0.10 86 1016.5
20260508025509 18 13 4.8 9.7 0.00 0.10 0.10 86 1016.5
20260508025012 18 360 6.4 11.3 0.00 0.10 0.10 86 1016.6
20260508024528 19 360 6.4 11.3 0.00 0.10 0.10 86 1016.4
20260508024005 19 17 4.8 12.9 0.00 0.10 0.10 86 1016.2
20260508023505 19 24 6.4 12.9 0.00 0.10 0.10 86 1016.1
20260508023013 19 20 8.0 11.3 0.00 0.10 0.10 86 1016.1
20260508022507 19 23 3.2 6.4 0.00 0.10 0.10 86 1016.2
20260508022011 19 31 1.6 4.8 0.00 0.10 0.10 86 1016.1
20260508021520 19 352 0.0 4.8 0.00 0.10 0.10 86 1016.2
20260508021011 20 352 1.6 9.7 0.00 0.10 0.10 85 1016.3
20260508020507 20 14 4.8 14.5 0.00 0.10 0.10 85 1016.3
20260508020023 20 360 8.0 14.5 0.00 0.10 0.10 85 1016.1
20260508015507 20 347 4.8 8.0 0.00 0.10 0.10 85 1016.1
20260508015010 20 17 4.8 8.0 0.00 0.10 0.10 85 1016.1
20260508014524 20 345 4.8 8.0 0.00 0.10 0.10 85 1016.0
20260508014010 20 360 4.8 9.7 0.00 0.10 0.10 85 1015.9
20260508013508 20 360 4.8 12.9 0.00 0.10 0.10 85 1016.0
20260508013027 20 360 6.4 16.1 0.00 0.10 0.10 85 1015.8
20260508012511 20 9 8.0 16.1 0.00 0.10 0.10 85 1015.7
20260508012008 21 352 8.0 14.5 0.00 0.10 0.10 85 1015.5
20260508011519 21 344 8.0 14.5 0.00 0.10 0.10 85 1015.4
20260508011011 21 346 6.4 16.1 0.00 0.10 0.10 85 1015.3
20260508010507 21 348 6.4 16.1 0.00 0.10 0.10 85 1015.3
20260508010021 21 346 6.4 14.5 0.00 0.10 0.10 85 1015.1
20260508005507 21 321 6.4 12.9 0.00 0.10 0.10 85 1015.1
20260508005009 21 360 6.4 12.9 0.00 0.10 0.10 85 1015.0
20260508004530 21 331 4.8 9.7 0.00 0.10 0.10 85 1014.9
20260508004013 21 331 3.2 14.5 0.00 0.10 0.10 85 1014.9
20260508003516 21 311 6.4 14.5 0.00 0.10 0.10 85 1015.0
20260508003027 21 323 6.4 12.9 0.00 0.10 0.10 85 1015.1
20260508002507 22 340 6.4 12.9 0.00 0.10 0.10 84 1015.0
20260508002013 22 343 4.8 12.9 0.00 0.10 0.10 84 1015.0
20260508001530 22 336 4.8 8.0 0.00 0.10 0.10 84 1015.0
20260508001009 22 342 3.2 12.9 0.00 0.10 0.10 84 1015.0
20260508000512 22 15 4.8 14.5 0.00 0.10 0.10 83 1014.9
20260508000017 22 352 6.4 14.5 0.00 0.10 0.10 83 1014.9
20260507235507 22 350 4.8 16.1 0.00 0.10 0.10 83 1014.9
20260507235008 22 5 9.7 16.1 0.00 0.10 0.10 82 1015.0
20260507234537 22 360 6.4 14.5 0.00 0.10 0.10 82 1014.8
20260507234008 22 345 4.8 14.5 0.00 0.10 0.10 82 1014.8
20260507233508 22 338 6.4 12.9 0.00 0.10 0.10 82 1014.9
20260507233027 23 352 4.8 11.3 0.00 0.10 0.10 82 1014.9
20260507232511 23 360 4.8 8.0 0.00 0.10 0.10 83 1014.9
20260507232005 23 342 4.8 8.0 0.00 0.10 0.10 83 1014.7
20260507231511 23 5 4.8 11.3 0.00 0.10 0.10 83 1014.9
20260507231008 23 5 4.8 12.9 0.00 0.10 0.10 82 1015.0
20260507230504 23 24 6.4 14.5 0.00 0.10 0.10 82 1015.0
20260507230017 23 5 11.3 14.5 0.00 0.10 0.10 81 1015.0
20260507225507 23 5 8.0 14.5 0.00 0.10 0.10 81 1014.9
20260507225008 23 352 8.0 14.5 0.00 0.10 0.10 81 1014.9
20260507224518 23 360 6.4 14.5 0.00 0.10 0.10 80 1014.8
20260507224008 23 332 8.0 16.1 0.00 0.10 0.10 80 1014.7
20260507223514 23 333 8.0 17.7 0.00 0.10 0.10 80 1014.8
20260507223024 23 338 6.4 19.3 0.00 0.10 0.10 81 1014.8
20260507222508 23 350 12.9 19.3 0.00 0.10 0.10 80 1014.9
20260507222011 23 30 6.4 16.1 0.00 0.10 0.10 80 1014.8
20260507221532 23 351 8.0 16.1 0.00 0.10 0.10 80 1014.8
20260507221011 23 23 9.7 14.5 0.00 0.10 0.10 80 1014.8
20260507220508 23 11 8.0 14.5 0.00 0.10 0.10 81 1014.7
20260507220016 23 337 6.4 17.7 0.00 0.10 0.10 81 1014.7
20260507215508 23 14 11.3 17.7 0.00 0.10 0.10 81 1014.6
20260507215012 23 309 6.4 12.9 0.00 0.10 0.10 81 1014.6
20260507214519 23 25 6.4 14.5 0.00 0.10 0.10 82 1014.5
20260507214010 23 336 6.4 14.5 0.00 0.10 0.10 83 1014.5
20260507213511 23 320 8.0 12.9 0.00 0.10 0.10 82 1014.4
20260507213027 23 340 4.8 16.1 0.00 0.10 0.10 82 1014.5
20260507212511 23 11 11.3 16.1 0.00 0.10 0.10 82 1014.5
20260507212011 23 335 6.4 16.1 0.00 0.10 0.10 83 1014.4
20260507211528 23 336 9.7 17.7 0.00 0.10 0.10 82 1014.4
20260507211014 23 335 11.3 17.7 0.00 0.10 0.10 82 1014.4
20260507210511 23 352 9.7 16.1 0.00 0.10 0.10 82 1014.4
20260507210030 23 338 8.0 17.7 0.00 0.10 0.10 82 1014.4
20260507205508 23 352 9.7 19.3 0.00 0.10 0.10 81 1014.4
20260507205008 24 5 9.7 19.3 0.00 0.10 0.10 81 1014.4
20260507204516 24 352 14.5 19.3 0.00 0.10 0.10 81 1014.5
20260507204003 24 352 6.4 16.1 0.00 0.10 0.10 81 1014.4
20260507203504 24 338 9.7 16.1 0.00 0.10 0.10 80 1014.6
20260507203004 24 348 8.0 14.5 0.00 0.10 0.10 80 1014.6
20260507202503 24 17 6.4 12.9 0.00 0.10 0.10 80 1014.5
20260507202003 24 14 6.4 14.5 0.00 0.10 0.10 80 1014.5
20260507201505 25 352 8.0 14.5 0.00 0.10 0.10 78 1014.5
20260507201003 25 5 6.4 12.9 0.00 0.10 0.10 79 1014.6
20260507200503 24 23 4.8 16.1 0.00 0.10 0.10 80 1014.5
20260507200011 24 318 6.4 16.1 0.00 0.10 0.10 79 1014.7
20260507195504 25 352 9.7 16.1 0.00 0.10 0.10 80 1014.7
20260507195006 25 336 6.4 16.1 0.00 0.10 0.10 80 1014.7
20260507194523 24 325 6.4 16.1 0.00 0.10 0.10 81 1014.7
20260507194004 24 18 6.4 14.5 0.00 0.10 0.10 81 1014.7
20260507193508 24 317 9.7 16.1 0.00 0.10 0.10 79 1014.7
20260507193008 24 324 8.0 16.1 0.00 0.10 0.10 79 1014.6
20260507192504 24 9 6.4 16.1 0.00 0.10 0.10 80 1014.6
20260507192003 24 334 6.4 16.1 0.00 0.10 0.10 79 1014.7
20260507191503 24 5 8.0 16.1 0.00 0.10 0.10 80 1014.8
20260507191003 24 313 9.7 16.1 0.00 0.10 0.10 80 1014.9
20260507190505 24 325 6.4 14.5 0.00 0.10 0.10 82 1014.9
20260507190012 24 360 6.4 14.5 0.00 0.10 0.10 80 1014.8
20260507185503 24 34 8.0 14.5 0.00 0.10 0.10 81 1014.8
20260507185008 24 5 0.0 11.3 0.00 0.10 0.10 81 1014.9
20260507184508 24 51 8.0 11.3 0.00 0.10 0.10 81 1015.0
20260507184004 24 283 3.2 16.1 0.00 0.10 0.10 82 1014.9
20260507183504 23 32 1.6 16.1 0.00 0.10 0.10 82 1014.9
20260507183015 24 13 9.7 16.1 0.00 0.10 0.10 82 1014.8
20260507182504 23 30 4.8 14.5 0.00 0.10 0.10 84 1014.8
20260507182009 23 58 8.0 14.5 0.00 0.10 0.10 81 1015.0
20260507181512 23 329 3.2 9.7 0.00 0.10 0.10 83 1015.1
20260507181010 23 352 4.8 9.7 0.00 0.10 0.10 83 1015.2
20260507180507 23 352 3.2 8.0 0.00 0.10 0.10 84 1015.3
20260507180004 23 30 4.8 9.7 0.00 0.10 0.10 84 1015.2
20260507175504 23 299 3.2 9.7 0.00 0.10 0.10 85 1015.2
20260507175003 22 49 1.6 9.7 0.00 0.10 0.10 85 1015.2
20260507174511 22 5 3.2 8.0 0.00 0.10 0.10 85 1015.2